Pendleton, OR

11:36 AM PST on December 16, 2017 (GMT -0800)
Eastern Oreg Regional At Pendleton

Weather History for KPDT - September, 2013

Change the Weather History Date:

Friday, September 6, 2013

  Actual Average Record
Temperature  
Mean Temperature 64 °F 67 °F  
Max Temperature 74 °F 81 °F 102 °F (1955)
Min Temperature 54 °F 52 °F 34 °F (1898)
Degree Days  
Heating Degree Days 1 2  
Month to date heating degree days 1 8  
Since 1 July heating degree days 1 30  
Cooling Degree Days 0 3  
Month to date cooling degree days 43 22  
Year to date cooling degree days 753 592  
Growing Degree Days 14 (Base 50)    
Moisture  
Dew Point 50 °F    
Average Humidity 67    
Maximum Humidity 86    
Minimum Humidity 47    
Precipitation  
Precipitation T in 0.02 in 0.40 in (1901)
Month to date precipitation 1.07 0.10  
Year to date precipitation 6.36 8.19  
Snow  
Snow 0.00 in 0.00 in 0.00 in (2002)
Month to date snowfall 0.0 0.0  
Year to date snowfall 0.2 7.7  
Since 1 July snowfall T 0.0  
Snow Depth 0.00 in    
Sea Level Pressure  
Sea Level Pressure 30.04 in    
Wind  
Wind Speed 9 mph (SW)    
Max Wind Speed 23 mph    
Max Gust Speed 28 mph    
Visibility 10 miles    
Events Rain    
T = Trace of Precipitation, MM = Missing Value Source: NWS Daily Summary

Daily Weather History Graph

Daily Weather History Graph

Search for Another Location

Airport or City:

Trip Planner

Search our weather history database for the weather conditions in past years. The results will help you decide how hot, cold, wet, or windy it might be!

Date:

Astronomy

Sep. 06, 2013 Rise Set
Actual Time 6:23 AM PDT 7:23 PM PDT
Civil Twilight 5:52 AM PDT 7:53 PM PDT
Nautical Twilight 5:16 AM PDT 8:29 PM PDT
Astronomical Twilight 4:38 AM PDT 9:07 PM PDT
Moon 7:47 AM PDT (9/6) 7:41 PM PDT (9/6)
Length of Visible Light 14h 00m
Length of Day
13h 00m
New Moon, 2% of the Moon is Illuminated
Sep 6
New Moon
Sep 12
First Quarter
Sep 19
Full
Sep 26
Last Quarter
Oct 4
New

Hourly Weather History & Observations

Time (PDT) Temp. Dew Point Humidity Pressure Visibility Wind Dir Wind Speed Gust Speed Precip Events Conditions
12:53 AM 60.1 °F 51.1 °F 72% 29.96 in 10.0 mi WSW 12.7 mph - N/A   Partly Cloudy
1:53 AM 60.1 °F 48.9 °F 67% 29.96 in 10.0 mi WSW 12.7 mph - N/A   Mostly Cloudy
2:53 AM 60.1 °F 48.0 °F 64% 29.97 in 10.0 mi SSE 3.5 mph - N/A   Mostly Cloudy
3:53 AM 57.9 °F 50.0 °F 75% 29.98 in 10.0 mi SSW 6.9 mph - N/A   Partly Cloudy
4:53 AM 57.9 °F 46.9 °F 67% 29.99 in 10.0 mi SW 3.5 mph - N/A   Clear
5:53 AM 55.0 °F 46.9 °F 74% 30.01 in 10.0 mi South 6.9 mph - N/A   Clear
6:53 AM 55.0 °F 50.0 °F 83% 30.03 in 10.0 mi South 5.8 mph - N/A   Scattered Clouds
7:53 AM 61.0 °F 50.0 °F 67% 30.04 in 10.0 mi South 11.5 mph - N/A   Clear
8:53 AM 64.9 °F 48.9 °F 56% 30.04 in 10.0 mi SW 16.1 mph 24.2 mph N/A   Overcast
9:53 AM 64.0 °F 52.0 °F 65% 30.05 in 10.0 mi SW 9.2 mph - 0.00 in Rain Light Rain
10:53 AM 66.9 °F 48.0 °F 51% 30.06 in 10.0 mi SW 15.0 mph - 0.00 in   Overcast
11:53 AM 69.1 °F 48.0 °F 47% 30.06 in 10.0 mi SW 13.8 mph - 0.00 in   Overcast
12:53 PM 66.9 °F 48.9 °F 52% 30.06 in 10.0 mi WSW 13.8 mph - 0.00 in   Overcast
1:53 PM 70.0 °F 50.0 °F 49% 30.05 in 10.0 mi West 6.9 mph - N/A   Overcast
2:53 PM 72.0 °F 50.0 °F 46% 30.04 in 10.0 mi West 17.3 mph - N/A   Mostly Cloudy
3:53 PM 68.0 °F 51.1 °F 55% 30.04 in 10.0 mi West 17.3 mph - N/A   Overcast
4:53 PM 66.9 °F 53.1 °F 61% 30.05 in 10.0 mi NW 11.5 mph - N/A   Overcast
5:53 PM 64.0 °F 53.1 °F 67% 30.06 in 10.0 mi NW 9.2 mph - N/A   Overcast
6:53 PM 64.0 °F 54.0 °F 70% 30.06 in 10.0 mi Calm Calm - N/A   Overcast
7:53 PM 62.1 °F 54.0 °F 75% 30.08 in 10.0 mi South 3.5 mph - N/A   Overcast
8:53 PM 61.0 °F 54.0 °F 78% 30.09 in 10.0 mi SSW 6.9 mph - N/A   Mostly Cloudy
9:53 PM 60.1 °F 53.1 °F 78% 30.09 in 10.0 mi SSW 4.6 mph - N/A   Mostly Cloudy
10:53 PM 59.0 °F 52.0 °F 78% 30.10 in 10.0 mi SW 5.8 mph - N/A   Clear
11:53 PM 55.9 °F 51.1 °F 84% 30.09 in 10.0 mi South 5.8 mph - N/A   Clear